Location: Novo Ouro Preto
(19.8840°S, 43.9844°W)
Time: 09:43:12
(UTC+00:00)

Cosmos 1844 Rocket - Pass Details

Date: 18 September 2020
Orbit: 823 x 846 km, 71.0° (Epoch: 22 October)

Event Time Altitude Azimuth Distance (km) Brightness Sun altitude
Rises 20:59:46 0° 191° (S) 3,387 6.0 -2.8°
Reaches altitude 10° 21:02:16 10° 187° (S) 2,446 5.2 -3.4°
Maximum altitude 21:07:46 56° 108° (ESE) 975 2.8 -4.7°
Drops below altitude 10° 21:13:11 10° 30° (NNE) 2,414 4.8 -6.0°
Sets 21:15:38 0° 26° (NNE) 3,340 5.5 -6.6°
